Regional Weather Roundup
Issued by NWS Northern Indiana

Home | Current Version | Previous Version | Text Only | Print | Product List | Glossary On
Versions: 1 2 3 4 5 6 7 8 9 10 11 12 13 14 15 16 17 18 19 20 21 22 23 24 25 26 27 28 29 30 31 32 33 34 35 36 37 38 39 40 41 42 43 44 45 46 47 48 49 50
000
ASUS43 KIWX 292300
RWRIWX

KIWX WEATHER ROUNDUP
NATIONAL WEATHER SERVICE NORTHERN INDIANA
700 PM EDT FRI MAY 29 2015

NOTE: "FAIR" INDICATES FEW OR NO CLOUDS BELOW 12,000 FEET WITH NO
SIGNIFICANT WEATHER AND/OR OBSTRUCTIONS TO VISIBILITY.

* THESE STATIONS ARE NOT UNDER NWS QUALITY CONTROL. THEY ALSO MAY NOT
  REPORT WEATHER SUCH AS PRECIPITATION OR FOG.

INZ001>027-300000-
NORTHERN INDIANA

CITY           SKY/WX    TMP DP  RH WIND       PRES   REMARKS
GARY*          PTSUNNY   84  61  45 S9G21     29.90F
SOUTH BEND     MOSUNNY   83  61  47 S15       29.94F
GOSHEN         MOSUNNY   82  64  54 S17       29.96F
ANGOLA*        SUNNY     84  79  84 SW16      29.98F HX  96
FORT WAYNE     PTSUNNY   81  65  58 S16       29.99F
PERU/GRISSOM   MOSUNNY   82  64  54 S14       29.97S

$$
INZ028>050-300000-
CENTRAL INDIANA

CITY           SKY/WX    TMP DP  RH WIND       PRES   REMARKS
LAFAYETTE      MOSUNNY   81  63  54 SW9       29.96F
KOKOMO*        SUNNY     84  64  51 SW15G23   29.98S
MUNCIE*        MOSUNNY   83  63  50 S13G24    30.01F
INDIANAPOLIS   MOSUNNY   81  63  54 S16       30.00F

$$
MIZ043>046-050>051-056>058-064>065-071>073-077>080-300000-
SOUTHWEST LOWER MICHIGAN

CITY           SKY/WX    TMP DP  RH WIND       PRES   REMARKS
BATTLE CREEK   PTSUNNY   74  68  81 NE3       29.97S
BENTON HARBOR  PTSUNNY   80  66  62 S10       29.91F
COLDWATER*     MOSUNNY   82  59  45 S9G22     29.97S
HILLSDALE*     MOSUNNY   83  62  48 S10       29.99F
HOLLAND        PTSUNNY   75  69  81 SE7       29.93F
GRAND RAPIDS   PTSUNNY   74  70  87 SE6       29.95F
KALAMAZOO      MOSUNNY   76  70  82 E5        29.95F
STURGIS*       MOSUNNY   81  63  54 S14G20    29.96F
THREE RIVERS*  FAIR      83  61  47 SW13      29.95F

$$
OHZ001>008-015>018-024>025-300000-
NORTHWEST OHIO

CITY           SKY/WX    TMP DP  RH WIND       PRES   REMARKS
DEFIANCE       MOSUNNY   84  64  50 S13       29.99F
FINDLAY        MOSUNNY   82  66  58 SW17      30.02F
TOLEDO EXPRESS PTSUNNY   82  65  56 SW12      29.99F
TOLEDO METCALF MOSUNNY   82  66  58 S13       30.00F
LIMA           MOSUNNY   82  63  52 S17       30.03F

$$
AND FOR LAKE MICHIGAN COASTAL AND OPEN LAKE BUOY OBSERVATIONS

STATION/POSITION TEMP    WIND        PRES    VSBY  WAVE
                 AIR SEA DIR/SP/G                  HT/PER
                 (F)     (DEG/KT/KT) (MB)    (MI)  (FT/S)
CALUMET HARBOR    78     220/  4/  9   N/A
MICHIGAN CITY     82     180/ 12/ 17   N/A
BURNS HARBOR      81     200/ 13/ 22 1012.9S
SAINT JOSEPH      73     180/  3/  8 1014.2F
SOUTH LAKE BUOY   48 38  130/ 10/ 12 1013.3F         0
4 MI NW BRIDGMAN  73 61  170/  4/  6   N/A           1
MICHIGAN CITY     69 56  220/  8/ 10   N/A           1

$$
&&


USA.gov is the U.S. government's official web portal to all federal, state and local government web resources and services.